Tracking 19854 objects as of 23-Sep-2019
HD Live streaming from Space Station
objects crossing your sky now

FENGYUN 1C DEB

Track FENGYUN 1C DEB now!
10-day predictions


NORAD ID: 35169
Int'l Code: 1999-025DMZ
Perigee: 615.7 km
Apogee: 880.8 km
Inclination: 99.2 °
Period: 99.6 minutes
Semi major axis: 7119 km
RCS: 0.0083 m2 (small)
Launch date: May 10, 1999
Source: People's Republic of China (PRC)
Launch site: Taiyaun Space Center, China (TSC)

Note: This is SATELLITE DEBRIS
aabbcc
Your satellite tracking list
Your tracking list is empty




NASA's NSSDC Master Catalog

Two Line Element Set (TLE):
1 35169U 99025DMZ 19265.83928882  .00000190  00000-0  57661-4 0  9999
2 35169  99.1886 286.1583 0186185  48.6731 313.0312 14.45274625595640
Source of the keplerian elements: AFSPC